Hlavní strana
METAR-TAF:

METAR-TAF

Letiště :

Andrews-Murphy Airport

Andrews, Severní Karolína, Spojené státy americké

zeměpisná šířka: 35-11-42N, zeměpisná délka: 083-51-49W, výška: 517 m

Aktuální stav počasí

Zpráva byla vytvořena před 16 minutami, v 10:15 UTC
Bezvětří
Teplota 4°C
Vlhkost vzduchu 93%
Tlak 1013 hPa
Viditelnost: 16.1 km
Zataženo ve výšce 2500 ft

METAR: KRHP 271015Z AUTO 00000KT 10SM OVC025 04/03 A2992 RMK AO2 T00350029

Čas: 05:31 (10:31 UTC)


TAF: chybějící

Stav a předpovědi počasí z více než 4 000 letišť (zprávy METAR a TAF).

Červené a žluté tečky na mapě představují dostupné meteorologické stanice.

Když kurzor umístíte na tečku, zobrazí se název stanice.

Pak kliknutím zobrazíte stav a předpověď počasí.

Chcete-li změnit mapu, kliknutím na zelené tlačítko se znaménkem +mapu přiblížíte, kliknutím na zelené tlačítko se znaménkem – mapu oddálíte a kliknutím na zelené šipky přejdete na sousední mapy.


METAR-TAF: